Location: Bytów
(54.1734°N, 17.4894°E)
Time: 04:40:58
(UTC+01:00)

ISS - Visible Passes

Search period start: 24 November 2017 00:00
Search period end: 04 December 2017 00:00
Orbit: 402 x 407 km, 51.6° (Epoch: 24 November)

Date Brightness Start Highest point End Pass type
(mag) Time Alt. Az. Time Alt. Az. Time Alt. Az.
29 Nov -1.3 17:27:08 10° SSE 17:27:45 11° SE 17:27:45 11° SE visible
30 Nov -1.7 18:08:42 10° SSW 18:10:15 20° S 18:10:15 20° S visible
01 Dec -1.9 17:16:56 10° SSW 17:19:15 18° SSE 17:20:01 17° SE visible
01 Dec -0.8 18:52:04 10° WSW 18:52:40 14° WSW 18:52:40 14° WSW visible
02 Dec -1.3 16:25:40 10° SSE 16:27:06 12° SE 16:28:32 10° ESE visible
02 Dec -2.6 17:59:51 10° SW 18:02:23 33° S 18:02:23 33° S visible
03 Dec -2.4 17:07:46 10° SW 17:10:37 27° SSE 17:12:04 20° ESE visible
03 Dec -1.2 18:43:32 10° WSW 18:44:42 20° WSW 18:44:42 20° WSW visible
